Home > Weather > Cahul > Past weeks

Flag for Moldova Weather for the Past 2 Weeks in Cahul, Moldova

Now
39 °F

Fog.


Feels Like: 36 °F
Forecast: 40 / 63 °F
Wind: 5 mph from South

Location: Galati

Current Time: Feb 14, 2016 at 11:16:43 AM

Latest Report: Feb 14, 2016 at 10:00 AM


Visibility: 1 mi

Pressure: 29.60 "Hg

Humidity: 97%

Dew point: 38 °F

Location of CahulLocation

Historic Weather in Cahul — Graph

°F

Cahul Temperature Yesterday

Maximum temperature yesterday: 46 °F (at 5:00 PM)
Minimum temperature yesterday: 33 °F (at 2:00 AM)
Average temperature yesterday: 42 °F

High & Low Weather Summary for the Past Weeks

 TemperatureHumidityPressure
High56 °F (Feb 3, 4:00 PM)100% (Jan 30, 7:00 PM)30.44 "Hg (Jan 30, 7:00 PM)
Low28 °F (Feb 7, 4:00 AM)41% (Feb 11, 2:00 PM)29.41 "Hg (Feb 13, 10:00 PM)
Average41 °F82%30.01 "Hg
* Reported Jan 30 5:00 PM — Feb 14 10:00 AM, Cahul, Weather by CustomWeather, © 2016

Note: Actual official high and low records may vary slightly from our data, if they occured in-between our weather recording intervals... More about our weather records

Advertising

Cahul Weather History for the Previous 24 Hours

 ConditionsComfort  
Time TempWeatherWind HumidityBarometerVisibility
10:00 AM
Sun, Feb 14
39 °FFog.5 mph97%29.60 "Hg1 mi
9:00 AM39 °FFog.5 mph99%29.58 "Hg1 mi
8:00 AM38 °FFog.6 mph99%29.56 "Hg1 mi
7:00 AM39 °FPassing clouds.6 mph97%29.50 "Hg6 mi
10:00 PM
Sat, Feb 13
45 °FFog.2 mph100%29.41 "Hg0 mi
9:00 PM45 °FFog.2 mph100%29.44 "Hg0 mi
8:00 PM45 °FFog.2 mph100%29.47 "Hg0 mi
7:00 PM45 °FFog.2 mph100%29.50 "Hg0 mi
6:00 PM45 °FFog.2 mph100%29.54 "Hg0 mi
5:00 PM46 °FFog.1 mph100%29.55 "Hg0 mi
4:00 PM45 °FFog.1 mph100%29.57 "Hg0 mi
3:00 PM45 °FFog.2 mph100%29.59 "Hg0 mi
2:00 PM44 °FOvercast.2 mph100%29.62 "Hg1 mi
1:00 PM43 °FDrizzle. Overcast.2 mph100%29.65 "Hg1 mi
12:00 PM42 °FLight rain. Overcast.3 mph100%29.67 "Hg1 mi
11:00 AM42 °FLight rain. Overcast.2 mph100%29.71 "Hg1 mi
Weather by CustomWeather, © 2016

See weather overviewHow to use our weather pages